Retour au catalogue

FENGYUN 1C DEB

ActifPO
NORAD 30265·DEBRIS·🇨🇳 China

Lancé May 10, 1999 depuis Taiyuan Satellite Launch Center

Loading…

Prochains Passages (prochaines 24 heures)

TLE

FraisSource: Space-Track

Époque: Sep 12, 2026, 08:13 UTC

1 30265U 99025YA  26255.34287568  .00006087  00000-0  11584-2 0  9996
2 30265  98.6770  22.6746 0025676 245.9447 139.5397 14.64278517 24001

Suivez FENGYUN 1C DEB en temps réel avec AllMySat

Download on the App Store